Regional Weather Roundup
Issued by NWS Binghamton, NY

Home | Current Version | Previous Version | Text Only | Print | Product List | Glossary On
Versions: 1 2 3 4 5 6 7 8 9 10 11 12 13 14 15 16 17 18 19 20 21 22 23 24 25 26 27 28
000
ASUS41 KBGM 282310
RWRBGM

REGIONAL WEATHER ROUNDUP
NATIONAL WEATHER SERVICE BINGHAMTON NY
700 PM EDT SAT MAY 28 2016

Note: "fair" indicates few or no clouds below 12,000 feet with no
significant weather and/or obstructions to visibility.

* = Station(s) that does not report precipitation, such as rain,
snow, etc, also no thunder or fog.

NYZ009-015>018-022>025-036-037-044>046-055>057-062-290000
...Central New York...

CITY           SKY/WX    TMP DP  RH WIND       PRES   REMARKS
Binghamton     SUNNY     84  61  45 NE5       30.11F
Cortland       FAIR      88  59  37 CALM      30.09S HX  87
Dansville      LGT RAIN  75  68  78 SE6       30.09R
Elmira         CLOUDY    86  63  45 W8        30.06R HX  87
Ithaca         MOSUNNY   86  67  52 NW5       30.09S HX  89
Hamilton       SUNNY     88  63  42 N5        30.10S HX  88
Hornell        CLOUDY    75  66  73 SE6       30.16R
Monticello     CLOUDY    75  64  69 CALM      30.15R
Penn Yan       MOSUNNY   82  63  52 CALM      30.09R
Rome           SUNNY     88  62  41 CALM      30.06S HX  88
Sidney         SUNNY     90  61  37 CALM      30.08S HX  89
Syracuse       CLOUDY    87  63  44 N9        30.04S HX  88
$$

PAZ038>040-043-044-047-048-072-290000
...Northeast Pennsylvania...

CITY           SKY/WX    TMP DP  RH WIND       PRES   REMARKS
Hazleton       SUNNY     82  64  54 S5        30.17R
Scranton       CLOUDY    85  67  54 VRB5      30.10S HX  87
$$
&&
KEY
WCI = Wind Chill Index
VSB = Visibility
HX  = Heat Index
$$




USA.gov is the U.S. government's official web portal to all federal, state and local government web resources and services.